Simultaneous Nadir Overpasses (SNOs) Predictions

Prediction of SNOs between GOES-16 and NPP Satellite Orbit:

Table of predicted SNOs for the next 14.0 days since TLE Epoch: 8/6/2022
Index Date Time (GOES-16) GOES-16 Lat,Lon NPP Lat,Lon Distance(km) Time Diff (sec)
1 08/06/2022 06:24:04 0.04, -75.20 -0.03, -75.00 22.71 80
2 08/08/2022 18:27:18 -0.03, -75.20 -0.14, -75.79 65.95 80
3 08/09/2022 18:11:15 0.01, -75.21 0.90, -71.26 449.60 80
4 08/11/2022 06:33:03 -0.01, -75.21 0.31, -76.53 150.66 80
5 08/12/2022 06:11:39 -0.01, -75.22 -0.73, -72.01 366.30 80
6 08/13/2022 18:33:37 0.01, -75.23 -0.46, -77.31 236.89 80
7 08/14/2022 18:17:33 0.00, -75.25 0.58, -72.79 280.78 80
8 08/16/2022 06:39:22 -0.00, -75.27 0.63, -78.06 317.46 80
9 08/17/2022 06:17:58 -0.00, -75.29 -0.41, -73.53 200.51 80
10 08/18/2022 18:39:55 0.00, -75.32 -0.78, -78.84 401.58 80
11 08/19/2022 18:23:51 0.00, -75.33 0.21, -74.31 116.72 80
